Location: Cutler
(25.6150°N, 80.3110°W)
Time: 12:30:19
(UTC-05:00)

Cosmos 2360 Rocket - Visible Passes

Search period start: 19 December 2014 00:00
Search period end: 29 December 2014 00:00
Orbit: 835 x 845 km, 71.0° (Epoch: 18 December)

Date Brightness Start Highest point End Pass type
(mag) Time Alt. Az. Time Alt. Az. Time Alt. Az.
19 Dec 4.0 04:35:29 10° SSE 04:40:17 29° ESE 04:45:05 10° NE visible
19 Dec 3.1 06:19:32 10° WSW 06:24:08 26° WNW 06:28:46 10° N visible
20 Dec 4.1 04:20:03 10° SSE 04:24:43 27° ESE 04:29:22 10° NE visible
20 Dec 3.0 06:03:46 10° WSW 06:08:31 28° WNW 06:13:17 10° N visible
21 Dec 4.1 04:04:37 10° SSE 04:09:08 25° ESE 04:13:39 10° NE visible
21 Dec 2.9 05:48:01 10° SW 05:52:54 30° WNW 05:57:47 10° N visible
22 Dec 4.5 03:55:59 18° ENE 03:55:59 18° ENE 03:57:54 10° NE visible
22 Dec 2.9 05:38:02 31° NW 05:38:02 31° NW 05:42:16 10° N visible
23 Dec 3.9 05:25:28 16° N 05:25:28 16° N 05:26:45 10° N visible
